User: anonymous   Login
Location: San Francisco
(37.7750°N, 122.4180°W)
Time: 14:46:50
(UTC-07:00)
Language:

GP-B - Orbit

View from above orbital plane
View from above orbital plane
View from above satellite
View from above satellite

Ground track
Ground track

The orbit data is extracted from the following two-line orbital elements,

1 28230U 04014A   17112.93465188 +.00000255 +00000-0 +32759-4 0  9992
2 28230 089.8440 123.0932 0002837 074.9597 285.1939 14.78528981158139
Epoch (UTC): 22 April 2017 22:25:53
Eccentricity: 0.0002837
inclination: 89.8440°
perigee height: 632 km
apogee height: 636 km
right ascension of ascending node: 123.0932°
argument of perigee: 74.9597°
revolutions per day: 14.78528981
mean anomaly at epoch: 285.1939°
orbit number at epoch: 15813

The dashed part of the orbit path shows where the satellite is in the earth's shadow,  

DLR